GFSFLT2_500_rhum_000.txt.gz
RH
54 52 59 59 83 88 97 97 97 98 86 75 84 87 88 98 100 98 92 95 100 100 87 95 76 71 69
55 62 59 52 57 70 88 90 91 91 90 84 87 80 87 96 98 100 100 96 100 100 96 96 83 77 73
65 61 56 47 39 39 50 67 65 98 96 84 87 71 91 97 100 84 92 100 99 100 98 100 97 82 86
81 70 58 46 39 33 32 49 55 66 98 99 90 75 91 100 100 98 97 99 100 100 95 100 100 98 98
81 69 59 50 40 34 32 29 25 86 98 100 99 93 89 98 99 100 100 98 100 99 99 100 99 99 100
62 48 42 34 28 30 30 37 33 37 99 99 97 84 87 94 100 100 100 100 100 99 100 100 100 100 100
53 49 40 28 21 19 29 30 51 47 60 99 99 100 99 95 98 100 99 100 100 100 100 100 96 99 100
31 31 23 20 19 20 22 28 34 67 65 72 100 98 99 100 96 99 99 100 100 100 100 98 100 100 96
15 14 14 14 19 22 34 37 28 57 76 100 100 98 100 99 98 100 99 100 100 100 99 99 100 99 90
14 17 17 19 29 30 42 32 58 88 94 100 100 100 98 100 100 99 99 100 100 100 99 99 99 94 94
15 18 27 33 37 31 49 82 97 100 100 100 100 95 100 100 100 99 100 100 100 99 94 100 96 88 40
20 47 47 49 34 58 100 100 100 97 97 100 100 100 100 100 100 99 100 100 98 99 99 89 83 51 6
83 76 72 51 60 100 100 100 100 96 100 100 100 100 100 99 100 100 100 100 100 92 82 81 49 4 4
73 63 58 60 100 100 100 100 99 99 100 100 99 98 98 100 100 100 100 100 88 82 81 40 7 4 5
62 60 85 94 100 100 100 100 100 100 100 100 99 100 100 100 100 100 95 81 81 73 20 4 4 7 17
96 100 86 100 100 100 100 100 100 100 100 100 100 100 100 100 96 88 83 80 40 7 2 7 20 23 24
100 67 92 100 100 100 100 100 100 100 100 100 100 100 98 95 84 81 48 6 4 8 16 21 30 43 68

GFSFLT2_500_rhum_003.txt.gz
RH
94 95 92 81 76 69 59 54 64 96 90 98 98 98 99 98 100 100 100 87 88 90 100 97 92 100 98
88 83 84 87 79 81 77 70 61 54 67 79 91 99 98 99 97 99 92 90 94 98 79 87 96 95 100
91 81 81 80 90 72 86 79 75 72 44 36 45 64 92 98 99 98 98 90 82 94 99 99 98 100 99
93 88 90 97 100 100 100 92 76 62 44 35 42 55 85 99 100 96 100 77 97 92 98 96 93 99 100
78 90 92 99 100 100 96 73 81 58 52 41 34 32 43 70 80 98 98 87 95 99 100 99 100 99 100
18 38 62 83 91 89 76 70 62 38 32 36 33 30 28 31 93 99 98 99 99 100 99 99 99 100 100
9 11 17 31 48 56 59 55 54 47 33 22 23 33 40 54 72 99 100 100 99 100 100 99 100 100 100
8 8 9 12 16 23 26 25 22 19 15 14 14 18 43 100 78 99 100 99 100 99 99 100 100 98 100
7 8 10 11 13 14 13 14 12 12 13 17 21 27 33 100 100 100 99 99 100 100 97 99 100 99 100
6 8 10 14 18 21 18 14 16 12 27 50 83 38 38 93 100 100 100 99 98 98 99 99 99 100 100
8 11 16 20 28 39 33 23 27 28 41 100 100 96 100 99 100 100 100 95 100 99 100 100 100 100 100
11 16 21 28 40 45 52 35 34 40 84 95 94 100 100 100 100 100 99 99 100 100 100 100 100 100 99
17 22 51 84 93 96 81 51 84 100 100 100 100 100 100 100 100 100 100 100 100 100 100 100 100 100 97
20 72 100 91 83 75 76 97 100 100 100 100 100 100 100 100 100 100 100 100 100 100 100 100 100 94 80
88 86 84 73 69 98 100 100 100 100 100 100 100 100 100 100 100 100 100 100 100 100 100 93 77 76 48
100 99 77 82 100 100 100 100 100 100 100 100 100 100 100 100 100 100 100 100 100 98 88 80 64 13 2
100 100 100 100 100 100 100 100 100 100 100 100 100 100 100 100 100 100 100 93 87 82 40 7 1 5 10

GFSFLT2_500_rhum_006.txt.gz
RH
78 87 90 98 100 100 98 100 100 100 100 97 81 80 76 97 96 98 97 99 98 100 98 95 96 83 94
47 52 64 76 84 99 100 100 100 100 100 100 88 68 66 70 100 100 100 99 99 99 100 98 96 80 88
26 25 22 21 29 56 75 94 100 100 100 100 100 99 81 69 63 69 91 97 100 99 92 100 87 82 90
29 23 21 18 18 17 20 59 84 99 100 100 100 96 95 84 73 76 44 67 94 100 99 100 96 86 77
18 15 13 11 11 12 14 14 49 78 94 100 100 89 94 65 57 46 41 46 71 98 98 99 98 96 95
10 8 6 7 8 8 8 10 14 60 90 96 100 100 100 96 75 50 47 38 38 67 99 99 91 100 100
4 4 5 4 4 4 5 6 10 26 66 85 93 91 96 90 83 52 43 35 37 40 40 96 100 100 98
4 4 4 4 3 4 7 8 9 11 29 48 67 76 62 48 38 32 36 35 35 44 64 99 100 100 100
6 5 5 4 4 6 8 9 9 11 14 23 34 40 36 36 34 27 22 23 51 90 80 97 100 100 100
7 6 5 6 7 8 9 10 12 11 15 14 14 15 14 14 15 15 16 20 41 100 99 100 100 100 100
7 8 9 10 13 23 29 15 16 14 16 17 16 15 14 27 38 22 22 82 93 100 100 100 99 100 100
11 14 17 35 28 24 23 22 23 21 37 33 34 37 78 100 71 32 44 94 100 100 100 97 100 100 100
22 30 29 31 40 58 79 52 68 64 63 67 64 46 98 100 92 100 99 99 100 100 100 100 100 100 100
32 38 52 82 98 83 82 77 76 98 100 100 100 100 99 100 100 100 98 100 100 100 100 100 100 100 100
89 100 100 94 83 67 67 84 96 99 96 97 98 100 100 100 100 100 100 100 100 100 100 100 100 100 100
100 100 97 70 67 92 100 100 100 100 100 100 100 100 100 100 100 100 100 100 100 100 100 100 100 100 100
100 100 97 80 100 100 100 100 100 100 100 100 100 100 100 100 100 100 100 100 100 100 100 100 100 100 98

GFSFLT2_500_rhum_009.txt.gz
RH
71 57 50 48 46 44 43 44 52 67 86 100 100 100 100 99 94 98 100 91 76 75 100 99 98 100 98
79 68 57 44 35 33 34 31 24 21 25 52 79 100 98 99 100 96 87 95 94 96 100 100 99 100 99
70 70 63 56 48 44 41 34 25 23 20 18 24 62 91 100 100 100 97 92 80 71 70 99 99 100 99
23 35 41 40 36 33 30 28 27 23 20 15 15 19 50 95 97 100 100 96 86 70 68 87 96 98 100
7 9 13 18 22 31 40 40 34 21 10 9 10 11 22 57 90 100 99 98 89 84 74 66 67 97 99
9 9 8 7 6 7 9 8 5 4 4 5 8 9 14 42 82 100 99 98 98 87 81 81 77 93 97
17 17 12 11 9 6 4 3 3 4 4 5 7 8 13 27 76 100 98 93 91 66 99 90 78 51 62
17 18 17 15 11 8 6 4 5 4 3 4 5 6 11 20 55 96 90 87 96 84 95 85 68 47 42
21 19 17 13 9 7 7 5 5 6 5 6 7 7 10 14 37 94 100 91 97 98 91 87 67 33 36
15 13 11 9 8 10 13 13 10 15 14 17 10 9 10 14 34 58 90 84 60 64 89 38 28 37 39
8 11 13 12 20 26 66 86 37 21 40 43 20 11 10 13 20 37 47 52 52 57 58 35 27 86 97
12 16 22 50 78 88 80 37 20 18 21 19 20 15 13 13 15 20 24 26 27 31 39 33 25 93 100
20 54 87 96 98 74 79 60 37 40 68 52 28 21 15 13 13 14 14 16 18 15 15 16 58 99 100
79 100 100 100 100 99 79 69 84 87 99 78 60 52 27 19 22 66 96 100 52 41 33 95 100 100 100
100 100 100 100 100 83 72 78 98 100 100 100 100 100 57 84 100 100 100 98 95 88 94 99 100 100 100
100 100 100 88 70 84 98 100 100 100 100 100 94 96 90 94 91 95 99 100 100 100 100 100 100 100 100
100 100 87 79 100 100 100 100 100 100 100 100 100 100 100 100 100 100 100 100 100 100 100 100 100 100 100

GFSFLT2_500_rhum_012.txt.gz
RH
3 3 4 7 13 21 44 70 82 72 84 98 98 89 85 89 96 90 99 96 96 95 98 76 99 84 98
4 6 7 7 6 9 18 44 75 82 64 60 52 45 46 56 69 78 87 97 98 85 96 91 92 84 92
9 6 6 6 6 7 8 10 25 62 76 56 38 32 31 25 21 22 37 59 70 95 68 92 98 95 74
9 6 6 6 7 8 7 8 8 15 42 63 58 47 33 26 25 24 20 18 38 64 88 78 95 93 90
7 6 7 9 9 11 16 12 8 8 10 20 43 46 40 32 32 38 38 29 17 33 69 93 92 90 93
9 9 10 14 14 14 15 18 15 15 10 7 10 23 37 41 44 42 33 18 14 18 68 64 98 82 92
25 12 9 12 13 15 17 16 15 14 11 7 7 5 6 5 5 4 5 8 11 14 60 70 99 100 90
31 13 9 11 11 10 10 10 11 10 9 8 7 5 4 4 4 4 5 7 10 14 54 97 100 100 94
22 9 10 8 8 8 12 16 69 68 99 71 11 5 4 4 4 7 8 9 11 20 76 89 96 100 100
12 9 6 7 12 15 20 52 80 100 100 74 50 25 18 15 7 6 8 11 13 38 85 76 76 85 100
8 7 12 16 22 39 58 84 83 100 100 100 100 100 61 68 26 12 10 11 18 49 100 100 76 96 95
16 20 40 48 83 91 90 84 84 88 81 47 66 85 72 42 37 17 13 12 23 71 98 78 74 87 86
70 92 92 93 98 98 100 100 100 78 98 95 53 44 38 37 28 16 12 13 24 41 49 82 69 72 74
100 100 100 100 100 100 100 97 96 100 100 100 100 83 55 26 18 16 14 15 17 24 30 31 29 33 63
100 100 100 86 72 87 93 99 100 100 100 100 100 98 100 84 20 15 14 14 17 18 20 23 24 22 33
100 99 92 97 100 100 100 100 100 100 100 100 100 100 79 64 39 26 32 38 38 52 69 39 68 55 25
100 100 100 100 100 100 100 100 100 100 100 100 100 100 100 78 99 100 100 100 100 100 100 83 97 100 75

GFSFLT2_500_rhum_015.txt.gz
RH
7 7 4 3 5 7 8 10 9 6 6 6 5 9 49 100 100 100 100 98 62 70 100 100 97 100 97
6 4 5 8 8 7 9 8 6 5 6 6 6 6 12 76 100 100 100 100 96 80 72 100 100 94 100
5 7 8 8 8 7 7 6 5 6 7 8 7 6 7 23 98 100 100 98 100 99 88 80 87 95 90
7 8 8 9 7 11 11 14 8 8 11 13 12 9 6 8 54 97 86 97 84 86 90 82 73 83 92
9 8 9 8 13 14 18 11 7 11 13 14 15 16 10 7 18 83 77 61 51 36 31 26 28 45 52
8 9 9 8 10 20 9 7 7 11 11 13 18 16 15 8 9 44 77 49 32 29 27 22 20 19 20
12 11 9 20 23 9 8 7 9 13 9 12 14 14 14 10 8 16 61 57 36 28 27 25 27 29 31
15 11 25 30 9 8 7 10 15 23 46 74 94 96 39 10 8 7 14 45 50 36 27 27 30 39 38
21 33 24 9 8 9 16 20 74 100 100 99 100 66 41 18 8 6 5 5 6 8 11 14 17 20 16
28 11 10 13 19 22 36 38 98 100 100 100 100 100 90 46 8 5 4 4 4 4 4 4 7 11 15
14 28 41 52 67 70 75 80 88 94 84 75 100 100 100 100 95 12 7 17 9 8 7 8 10 16 57
78 91 96 100 100 98 99 94 97 98 100 100 66 99 100 84 100 38 13 8 10 15 14 16 35 77 96
100 100 100 100 100 95 94 92 97 97 100 100 87 47 68 89 49 36 18 15 14 15 21 46 83 99 88
94 99 96 86 86 95 100 99 99 100 100 100 100 82 43 42 30 30 20 20 17 27 92 100 92 99 100
100 100 100 100 100 99 100 100 100 100 100 100 100 89 75 48 25 22 24 28 24 29 37 89 94 46 81
100 100 100 100 100 100 99 100 100 100 100 100 100 100 100 100 44 28 25 24 24 54 83 44 87 78 86
100 100 100 100 100 100 100 100 100 100 100 100 100 100 100 95 57 71 64 82 55 83 44 25 89 97 50

GFSFLT2_500_rhum_018.txt.gz
RH
8 7 6 9 12 11 6 4 6 7 8 8 7 7 9 9 9 6 6 6 11 21 15 32 52 46 55
7 11 15 15 8 4 6 8 8 8 8 7 13 12 7 6 6 6 6 6 9 50 48 39 70 75 44
16 18 14 6 8 9 8 8 8 8 8 13 10 11 15 10 7 7 7 6 6 24 75 54 80 100 90
20 11 7 14 18 16 8 8 8 8 22 16 9 7 7 7 8 8 8 7 6 8 69 86 98 100 100
8 10 16 18 22 16 11 8 12 21 9 8 7 7 7 8 8 10 12 11 7 7 55 92 100 100 100
17 22 20 25 18 15 20 16 8 9 7 8 11 10 10 12 13 15 17 15 10 7 39 92 100 100 100
23 23 21 24 22 14 10 10 10 14 10 18 30 76 77 71 55 31 18 17 10 7 34 92 97 100 100
27 31 27 14 13 17 21 19 26 24 36 86 100 100 100 100 100 95 35 13 9 8 31 86 88 91 96
29 18 14 37 57 49 71 52 37 70 100 75 100 100 100 100 91 43 20 10 8 7 28 76 74 73 48
15 45 73 93 91 86 83 92 100 100 100 73 79 96 100 100 99 78 69 14 8 6 25 68 61 42 30
80 92 94 95 98 92 85 91 98 100 100 92 100 89 95 99 100 61 48 35 9 6 13 43 52 34 29
100 100 100 97 93 89 93 97 93 91 99 94 85 63 91 96 100 74 100 83 20 55 26 5 14 32 27
98 90 93 96 98 100 100 99 95 97 94 92 87 49 64 92 100 61 61 93 100 72 45 40 5 4 5
98 97 100 100 100 100 100 100 100 100 100 100 100 90 36 53 52 69 56 40 50 55 26 15 25 12 12
100 100 100 100 100 100 100 100 100 100 100 100 84 74 49 28 29 34 33 28 30 31 43 54 82 85 81
100 100 100 100 100 100 100 100 100 100 99 100 91 85 57 23 26 30 32 33 59 96 100 100 96 99 100
100 100 100 100 100 100 100 100 100 100 100 98 100 100 78 29 24 25 31 41 96 100 100 96 100 100 100

GFSFLT2_500_rhum_021.txt.gz
RH
5 4 2 2 3 8 14 17 14 8 7 10 12 9 8 7 7 8 8 7 7 7 7 6 4 4 6
2 2 5 12 16 16 14 8 9 13 14 19 21 13 9 9 8 8 7 7 7 7 9 9 9 5 4
7 13 16 17 14 10 7 17 16 17 22 23 13 13 10 9 8 7 7 7 8 9 7 8 8 7 5
20 18 16 12 6 12 18 24 22 24 23 25 22 17 16 14 10 8 7 7 8 11 12 6 6 6 6
20 16 8 6 20 22 20 13 15 12 10 11 9 8 8 8 8 8 8 7 7 7 8 8 6 5 5
10 6 10 22 19 10 17 29 20 22 12 14 12 12 14 21 56 69 64 35 12 10 8 7 8 7 6
7 21 21 15 13 45 68 70 79 64 32 25 23 58 91 92 99 100 89 92 80 92 18 13 10 7 6
26 22 13 31 64 64 73 82 100 100 60 30 89 99 100 100 95 100 100 100 80 87 49 17 11 7 6
19 28 75 78 75 79 89 79 86 100 98 64 62 63 96 100 100 100 100 100 100 62 17 14 11 6 6
65 100 97 98 98 96 84 77 90 93 81 71 86 86 85 100 92 100 98 89 33 14 10 7 6 6 22
99 99 97 96 100 100 95 95 86 100 94 93 98 83 75 82 100 100 97 94 85 32 11 7 6 16 86
99 100 100 100 100 100 100 100 100 100 100 100 100 100 59 98 96 97 100 100 100 100 73 8 15 58 88
100 100 100 100 100 100 100 100 98 100 100 100 100 100 47 100 97 92 99 100 100 100 100 36 29 69 76
100 100 100 100 100 100 100 100 100 100 100 100 100 93 51 70 83 58 96 100 98 90 92 49 15 49 53
100 100 100 100 100 100 100 100 100 100 100 85 68 63 52 48 56 96 79 92 96 79 100 66 23 8 38
100 100 100 100 100 100 100 100 100 100 93 99 78 28 35 39 43 47 96 100 85 77 57 91 82 50 32
98 100 99 100 100 100 100 100 100 100 100 88 100 55 27 29 32 40 97 100 100 100 97 86 80 44 35

GFSFLT2_500_rhum_024.txt.gz
RH
6 6 4 3 2 3 5 9 13 14 16 16 12 8 8 10 9 10 9 8 10 8 6 6 5 5 4
5 3 3 5 7 11 15 17 17 14 8 6 15 20 20 19 12 11 14 14 12 10 7 7 7 7 6
4 7 10 14 14 15 12 9 5 9 22 22 17 14 14 14 14 13 13 11 10 9 8 8 8 8 8
15 15 13 11 8 5 4 10 20 19 11 16 17 14 13 10 9 9 10 12 14 13 12 11 10 7 6
9 6 7 6 6 13 19 13 18 49 44 53 34 26 18 13 11 10 10 10 13 10 8 7 7 8 8
8 8 8 21 22 15 17 58 72 100 100 100 79 78 36 16 31 66 68 73 88 100 100 90 15 7 7
16 23 21 18 42 73 78 82 92 100 87 80 91 85 43 49 76 66 70 81 98 100 95 85 79 23 7
23 19 46 81 79 79 83 82 89 85 43 59 84 74 72 71 76 71 78 100 100 100 100 97 76 57 16
30 78 92 94 94 85 91 92 99 100 74 75 87 82 85 96 69 74 96 88 94 87 42 50 81 68 39
100 100 100 100 98 90 89 96 100 100 98 100 99 91 100 69 79 73 89 100 100 100 100 54 19 17 17
100 100 100 100 100 100 100 95 100 100 99 98 100 100 78 81 64 82 100 100 100 100 100 92 12 10 13
100 100 100 100 100 100 100 100 92 94 100 100 100 100 66 85 78 94 100 100 100 100 94 15 8 7 7
100 100 100 100 100 100 100 100 98 97 100 100 100 90 64 85 75 89 98 78 100 100 80 11 9 7 6
100 99 100 100 100 100 100 100 100 100 100 85 97 62 67 77 81 76 88 81 88 100 64 29 62 76 81
100 100 100 100 100 100 100 100 100 100 100 69 38 41 48 70 75 98 93 93 93 70 59 29 77 94 94
90 95 99 100 100 100 100 100 100 100 100 100 40 37 40 82 100 98 100 100 100 100 84 44 54 80 82
19 25 43 86 96 98 100 100 100 100 100 100 78 34 34 95 98 100 100 93 100 100 100 62 28 54 60

GFSFLT2_500_rhum_030.txt.gz
RH
15 10 6 6 5 3 3 4 4 5 7 6 5 5 5 4 4 4 4 4 5 6 7 9 10 10 9
6 5 4 3 4 4 5 8 11 15 17 17 16 16 16 17 16 14 14 11 10 10 7 8 7 6 6
4 3 4 4 6 9 11 15 19 30 43 51 47 41 41 40 40 43 43 41 35 40 37 20 12 9 8
4 5 6 10 10 17 40 66 74 69 59 67 57 60 67 62 63 68 71 78 82 83 60 22 9 8 7
5 9 11 22 53 66 70 75 98 66 71 98 64 78 72 66 63 71 69 55 55 64 50 28 17 8 7
12 13 46 61 70 80 84 94 90 87 79 100 78 93 86 91 92 93 81 64 47 42 44 40 48 59 60
24 54 60 70 78 87 90 95 95 78 66 95 84 98 92 100 90 95 98 75 59 44 54 86 88 83 75
64 66 70 75 74 77 79 93 100 89 64 91 69 90 95 87 98 100 80 43 41 60 69 88 92 92 85
70 71 79 82 81 79 79 82 93 100 83 92 59 87 83 100 97 62 58 72 92 82 75 70 94 100 97
90 91 89 92 86 76 80 86 73 95 93 77 39 50 91 76 87 75 90 64 73 74 90 100 94 94 92
92 98 93 90 91 90 86 88 69 91 84 53 28 37 57 94 81 73 73 73 79 79 85 87 100 85 57
89 75 66 58 76 88 90 96 77 83 87 47 20 31 56 84 80 79 87 98 95 100 71 64 87 84 75
29 23 18 14 15 28 76 97 86 84 92 35 37 62 86 92 97 89 100 100 98 56 74 100 79 11 9
24 21 19 16 15 15 22 89 100 90 89 37 54 61 69 82 86 97 100 100 84 67 99 88 16 7 8
26 29 27 26 19 18 20 29 100 97 89 44 62 54 80 92 98 100 100 100 100 85 96 91 28 8 7
28 28 31 30 26 23 23 23 94 97 94 53 54 78 83 94 100 100 100 100 81 86 89 96 89 89 41
36 41 44 38 26 26 31 25 69 100 100 69 35 68 96 95 97 98 100 100 42 92 96 94 95 93 100

GFSFLT2_500_rhum_033.txt.gz
RH
15 15 11 7 5 4 3 3 4 6 7 7 8 12 19 35 40 37 23 16 13 14 10 5 5 5 4
8 6 4 4 3 3 4 9 10 21 40 42 39 48 50 54 56 51 51 58 57 35 16 16 12 6 6
5 4 3 3 4 9 12 38 55 51 48 52 63 62 63 60 56 55 50 52 55 63 74 67 47 22 17
4 3 4 6 12 33 48 61 64 76 76 77 72 69 62 52 58 64 70 75 62 63 59 71 93 91 88
4 5 8 25 53 58 62 72 88 62 73 88 72 78 74 76 76 75 79 87 94 92 90 66 65 89 100
6 10 42 52 58 69 70 75 85 77 62 100 75 86 62 47 46 82 94 93 89 91 90 63 37 47 51
12 51 52 56 65 76 82 81 81 77 61 97 69 63 20 30 71 88 98 100 97 79 47 43 41 32 32
58 62 62 65 65 68 74 82 87 81 61 83 57 30 17 33 64 77 60 55 64 65 72 78 76 72 75
67 64 66 70 62 68 74 76 82 89 76 83 61 25 17 33 58 70 71 79 81 74 79 79 81 85 89
81 79 73 68 56 53 46 52 72 93 85 98 34 20 40 34 57 53 58 64 75 88 87 100 90 87 91
86 76 60 40 20 18 16 17 19 80 79 86 27 31 40 68 77 91 97 93 96 100 99 73 62 77 83
65 30 23 24 22 18 13 12 12 31 92 88 24 44 60 68 76 99 93 94 100 100 78 93 100 92 27
21 23 25 25 24 23 20 16 12 16 87 91 27 40 56 82 95 86 70 100 100 98 99 100 81 37 9
38 44 41 35 32 25 27 20 23 23 76 100 40 48 67 77 92 90 96 96 99 92 100 86 92 40 8
58 52 41 36 36 32 26 22 23 29 100 99 54 44 76 100 100 93 100 94 65 100 99 96 85 69 8
46 38 43 51 47 34 28 23 29 29 96 100 76 34 82 81 97 100 100 85 95 100 96 100 98 91 31
27 51 66 66 48 37 43 37 33 30 83 100 91 33 75 100 94 98 100 87 95 100 93 100 91 100 99

GFSFLT2_500_rhum_036.txt.gz
RH
19 11 9 9 8 7 5 4 3 3 5 10 24 28 33 38 40 38 42 45 45 42 35 27 18 15 7
14 10 10 9 7 5 3 4 6 18 39 40 34 50 60 58 54 54 58 63 62 59 54 48 43 39 35
11 10 9 8 4 4 5 12 41 46 47 43 64 66 59 56 51 54 57 61 66 65 64 65 60 53 45
13 13 8 3 5 6 22 53 50 54 66 67 60 61 61 52 60 51 34 19 18 24 61 72 71 70 60
10 5 4 6 11 44 54 55 80 67 68 80 68 72 63 70 59 27 14 13 19 45 67 82 90 89 79
4 5 6 14 56 63 62 63 79 88 56 91 71 77 71 63 29 16 16 35 68 79 84 88 96 100 100
7 7 13 58 58 68 77 74 80 79 53 94 71 78 67 40 18 17 25 47 53 52 53 55 49 43 40
8 15 52 61 66 66 65 54 48 52 50 80 69 83 65 20 24 25 40 48 57 62 67 72 79 81 76
20 59 65 66 60 52 44 36 22 16 24 41 66 87 46 26 33 49 57 61 72 84 95 99 99 100 100
81 74 74 62 42 25 16 15 17 16 13 14 65 80 39 38 47 57 79 78 91 96 80 73 89 76 69
86 62 23 17 17 21 23 24 23 17 13 12 69 94 33 73 83 73 92 97 100 97 90 87 80 79 78
22 21 27 35 42 46 41 39 33 21 18 14 51 92 38 50 70 97 100 100 99 94 96 97 100 93 100
48 51 55 58 53 43 36 28 30 23 17 16 43 100 43 47 76 95 82 93 88 88 100 100 100 91 95
42 47 46 42 30 30 43 41 33 30 20 16 33 100 71 55 72 84 89 72 90 99 100 96 87 81 100
21 26 28 29 45 52 49 36 30 28 38 30 31 96 72 61 100 90 82 95 100 100 95 83 88 96 100
26 29 44 75 78 74 53 50 42 32 31 34 51 98 60 52 76 96 95 100 99 100 97 91 94 99 100
64 78 90 85 82 77 66 70 62 45 30 32 75 100 77 56 86 90 100 88 99 100 100 98 96 98 100

GFSFLT2_500_rhum_039.txt.gz
RH
45 38 30 22 16 13 10 8 7 5 4 3 4 5 19 31 32 45 51 56 55 56 56 56 55 50 40
30 18 14 12 10 8 7 6 4 4 6 8 24 36 32 45 50 55 55 59 59 55 52 46 44 44 46
16 13 11 10 8 7 5 4 5 7 30 52 38 42 53 58 58 57 58 57 56 50 31 20 19 24 36
13 10 7 8 8 4 4 6 10 53 58 57 43 60 68 61 61 59 62 53 29 18 20 20 15 15 18
8 8 7 5 4 5 6 13 65 73 54 79 63 76 71 62 61 68 66 35 19 21 14 15 28 64 78
11 6 4 4 6 7 15 60 69 93 70 73 73 85 74 71 68 73 62 20 20 17 26 31 38 49 44
4 4 5 8 10 32 69 69 74 68 61 53 43 36 46 57 74 78 27 23 35 48 54 64 75 82 78
5 7 15 36 53 59 67 63 47 36 31 36 23 19 15 22 57 68 28 35 45 46 56 72 84 92 96
24 46 56 58 48 33 19 16 17 26 19 16 18 15 13 14 42 60 37 41 46 64 67 75 80 80 84
49 35 25 24 22 25 32 40 44 45 42 39 35 24 17 19 47 61 46 55 59 72 79 86 91 78 76
27 28 32 34 36 37 38 36 35 32 28 22 24 22 15 24 89 72 37 64 80 93 99 100 95 77 61
24 24 24 26 27 31 39 37 32 22 22 21 21 20 18 26 100 80 48 87 86 91 98 94 93 100 100
19 17 16 16 20 26 41 36 48 39 30 26 22 20 20 38 100 78 71 100 100 93 93 86 84 90 89
22 21 23 23 25 27 47 68 64 60 49 31 24 22 26 80 94 63 80 77 80 82 84 95 89 93 100
26 27 35 43 67 72 78 76 64 56 68 60 38 27 32 99 86 53 75 86 75 74 87 100 99 95 100
46 39 42 44 50 57 55 59 63 70 61 52 45 34 81 89 42 89 83 74 83 88 96 98 100 100 100
76 80 80 67 49 49 52 57 58 54 56 43 39 62 100 99 38 65 87 91 97 96 100 88 96 100 100

GFSFLT2_500_rhum_042.txt.gz
RH
47 44 37 27 20 14 8 6 5 4 4 5 5 3 3 4 5 17 34 39 44 58 67 63 56 50 47
40 29 23 15 8 6 5 4 4 4 4 3 4 5 6 21 39 37 40 61 69 67 62 55 57 55 50
18 9 6 6 5 5 5 4 3 3 4 6 7 19 52 49 41 44 62 68 68 66 65 67 59 44 23
6 6 6 6 5 4 3 3 4 6 8 15 42 61 65 62 54 63 69 69 65 63 64 39 21 22 18
6 6 5 4 4 3 5 8 13 25 32 75 61 70 72 67 64 67 72 71 63 62 57 23 20 24 31
6 5 4 3 4 15 28 29 54 80 53 76 56 63 55 56 55 48 39 47 60 62 40 23 26 35 42
5 4 4 13 26 30 33 29 30 40 32 31 20 22 28 29 39 37 24 20 28 62 32 26 36 47 60
4 11 28 29 20 15 15 17 27 28 29 19 34 37 35 31 21 19 18 15 16 54 31 32 44 62 65
26 28 19 18 17 15 16 16 18 36 37 16 28 29 34 41 31 24 22 17 20 62 35 41 51 64 63
22 22 22 22 21 20 19 18 16 22 38 26 33 24 22 36 28 16 16 17 36 69 43 51 59 57 60
22 24 25 24 23 22 20 17 16 18 26 28 34 29 23 24 39 21 15 16 47 73 45 57 64 66 69
23 29 31 29 26 25 27 28 29 24 39 49 43 33 27 23 24 32 18 17 70 52 56 74 90 84 94
28 40 45 44 36 30 46 55 87 74 70 64 44 38 32 24 22 32 44 88 76 56 76 97 92 92 100
30 48 58 61 64 48 39 46 69 91 77 57 58 52 34 28 28 72 98 100 71 86 93 100 98 85 76
43 61 78 80 84 75 64 46 46 54 66 65 57 49 37 29 84 96 86 72 81 94 82 92 98 76 75
61 82 98 100 100 100 89 73 49 52 50 43 48 41 47 74 74 64 64 84 86 85 77 72 87 75 81
75 90 97 100 100 100 92 82 83 68 50 46 40 40 92 100 66 62 98 93 85 79 64 69 70 86 91

GFSFLT2_500_rhum_045.txt.gz
RH
56 49 43 38 26 14 13 10 9 9 9 8 5 3 2 2 2 2 4 5 6 11 30 42 40 34 28
46 43 34 23 14 10 9 8 7 6 5 4 3 3 4 4 4 5 12 40 52 56 55 53 49 56 58
37 22 13 9 7 7 6 6 5 4 4 4 8 14 24 26 38 46 50 57 66 62 73 70 68 68 65
17 12 7 6 6 6 4 4 4 5 10 25 24 27 34 38 45 44 52 67 72 78 78 73 67 69 68
7 5 5 4 4 4 4 5 20 26 28 25 19 22 28 40 47 44 37 49 55 58 57 70 68 64 63
5 5 5 5 4 4 13 21 22 22 16 15 19 18 20 20 19 19 26 35 40 44 36 29 37 57 48
5 5 4 4 11 20 17 14 17 20 16 12 21 21 28 31 30 25 20 20 22 25 33 31 22 29 46
4 4 12 20 16 13 13 12 17 21 19 11 16 19 28 38 30 20 15 12 20 26 24 21 20 19 45
10 19 14 12 11 9 14 20 25 26 24 17 18 17 21 45 41 29 21 17 16 17 23 24 19 21 47
14 12 13 15 16 17 21 34 37 31 29 24 21 19 23 53 61 35 24 20 17 16 17 17 19 40 48
15 18 22 23 26 34 44 50 48 37 32 28 42 46 44 45 76 56 36 25 19 18 17 18 28 68 47
23 28 35 38 47 58 70 71 75 56 37 36 43 63 59 52 43 62 37 22 18 17 17 45 80 58 52
37 47 54 62 71 77 95 91 95 87 51 38 40 54 57 47 31 44 31 32 19 18 70 76 64 64 58
49 59 68 74 91 97 95 96 97 100 85 47 51 48 44 41 31 37 42 48 56 71 70 71 85 69 56
63 70 72 79 100 100 100 93 84 80 94 68 50 44 45 34 51 94 98 93 84 77 75 84 94 70 67
65 65 59 70 90 100 100 89 85 75 67 58 55 56 47 59 70 87 87 65 78 91 85 92 100 89 69
61 49 57 84 97 97 88 88 77 62 57 47 47 43 81 100 76 53 76 97 100 85 74 74 76 83 79

GFSFLT2_500_rhum_048.txt.gz
RH
78 64 56 55 49 43 34 22 14 8 7 7 7 6 5 3 3 3 2 3 4 7 7 5 5 5 6
55 57 48 46 38 25 14 9 8 7 6 5 4 4 4 3 3 4 7 16 21 23 30 32 37 43 40
50 48 42 27 16 11 9 7 7 6 5 4 3 3 5 12 19 25 26 23 22 29 40 47 60 54 47
47 30 16 12 10 8 6 7 7 6 4 4 8 15 21 20 18 16 12 10 12 33 45 53 65 69 72
17 14 11 9 7 8 7 4 4 6 12 14 16 13 13 12 12 11 10 8 8 15 34 42 50 59 62
13 10 8 7 8 7 5 4 11 14 10 8 10 10 15 17 18 17 14 12 10 12 20 19 35 40 43
10 8 8 6 4 6 10 10 8 10 9 7 10 14 21 21 21 18 16 15 15 14 19 28 26 24 29
8 7 6 7 11 11 10 10 12 14 17 9 15 26 30 29 26 22 19 17 17 18 21 26 27 30 27
6 6 11 12 13 15 19 20 22 24 45 24 35 42 40 38 33 26 22 19 18 22 26 28 24 20 19
11 15 15 20 24 28 28 32 35 33 59 44 54 57 42 69 69 61 50 38 32 29 25 24 22 20 17
14 18 25 32 37 44 51 49 50 52 65 59 61 65 46 36 80 95 89 77 49 35 25 22 21 20 18
20 27 33 38 53 54 58 59 65 70 70 72 63 64 46 50 51 71 72 65 51 32 23 19 18 19 16
30 35 35 40 44 44 52 64 82 99 84 75 63 65 52 52 41 47 43 45 40 30 22 21 22 22 24
34 31 32 33 36 42 65 86 90 100 100 74 70 61 49 47 43 41 60 68 54 26 51 96 94 71 61
29 26 28 27 33 41 71 77 77 73 94 82 68 64 60 50 56 84 100 87 76 92 74 75 74 76 70
25 28 26 25 27 34 47 50 57 72 49 46 55 58 57 69 60 75 80 74 68 77 80 90 100 72 55
30 43 35 27 26 25 26 26 29 31 33 39 58 92 100 100 73 86 88 82 97 100 73 71 81 75 59

GFSFLT2_500_rhum_051.txt.gz
RH
71 77 81 82 68 60 60 51 47 38 24 16 13 12 12 11 8 5 4 3 3 3 2 2 3 3 4
87 94 74 66 66 61 55 41 24 16 14 13 12 10 8 6 4 3 3 3 4 6 8 12 13 16 21
83 74 72 67 62 46 27 19 15 12 12 11 9 8 6 4 3 5 7 9 10 11 14 17 21 21 19
83 76 63 45 27 18 14 12 8 8 8 7 5 4 6 7 8 8 7 6 6 6 8 10 11 12 12
62 50 24 16 14 13 12 10 9 6 5 6 7 10 10 9 10 9 8 7 6 6 6 10 14 14 14
31 21 17 15 18 16 11 9 5 9 11 13 15 15 17 17 17 15 12 10 10 9 9 11 14 17 18
24 21 20 17 14 12 7 6 11 15 16 19 22 22 26 26 30 30 28 29 31 28 24 21 19 18 20
26 20 17 16 9 6 12 14 15 20 27 22 21 23 28 38 55 52 51 50 41 33 28 24 21 20 22
20 19 10 6 12 14 16 19 21 23 29 22 27 28 32 46 81 94 79 57 40 33 30 28 28 31 31
11 5 10 17 19 22 23 22 16 15 32 28 36 45 41 66 100 100 95 52 34 40 46 45 46 46 45
6 19 22 27 29 24 19 18 21 25 46 52 60 72 71 66 91 100 79 63 57 62 56 50 41 36 33
20 26 30 27 20 22 21 20 21 30 57 61 56 68 72 77 67 78 67 64 60 56 54 44 35 27 25
32 32 23 22 33 22 20 18 21 27 36 42 51 62 67 63 48 55 52 48 52 50 42 35 39 40 26
34 25 28 47 43 34 28 21 21 28 28 30 38 45 50 50 42 46 64 97 86 67 87 100 100 80 49
29 26 52 60 63 60 55 48 46 42 34 34 42 52 63 71 74 85 95 93 90 97 87 92 82 79 75
28 32 60 66 74 77 72 66 67 71 80 88 96 98 97 85 65 84 95 90 78 81 74 85 100 78 72
31 30 64 76 80 76 68 72 83 80 78 87 100 100 100 100 92 59 67 100 100 100 81 66 80 82 55

GFSFLT2_500_rhum_054.txt.gz
RH
100 100 100 97 99 88 88 82 81 80 70 59 47 34 23 18 17 18 18 16 12 9 7 6 5 4 3
100 100 95 100 97 83 83 87 72 59 48 27 19 17 20 19 14 10 9 8 6 5 4 3 3 3 3
100 100 93 82 81 87 73 65 52 26 20 20 21 20 15 10 10 8 5 4 4 4 5 6 7 7 7
91 80 84 88 77 68 56 32 26 25 25 23 17 15 10 7 6 5 6 8 10 10 9 9 8 8 7
88 92 71 60 46 36 34 34 31 23 20 17 9 6 7 9 14 17 15 14 13 14 12 11 9 8 8
66 58 49 40 38 38 28 23 19 11 6 6 11 14 18 18 22 27 27 24 21 17 14 13 14 15 17
45 41 40 34 25 21 16 9 5 5 8 12 15 17 21 20 22 24 27 31 27 23 22 25 31 37 38
35 29 24 22 16 10 6 4 9 13 17 12 15 14 15 20 32 48 64 56 45 38 35 44 54 50 44
23 22 16 9 5 4 10 13 12 18 18 11 13 12 26 50 79 100 100 89 71 55 48 53 50 60 60
8 6 4 6 14 16 14 13 21 17 16 14 13 13 26 63 94 99 95 84 61 57 49 40 48 56 62
4 7 19 25 23 17 21 38 28 30 31 26 21 24 34 44 72 83 83 78 68 56 51 45 44 44 40
20 27 30 27 20 32 47 52 42 35 40 47 51 45 38 38 51 75 68 63 57 59 61 60 52 47 54
31 32 31 25 31 56 56 59 55 45 46 50 50 59 63 74 83 85 68 57 48 53 70 93 100 98 92
32 33 29 26 47 56 64 61 57 61 60 62 64 70 68 56 64 89 83 100 100 91 99 98 96 100 100
30 36 29 26 52 64 67 59 51 63 76 83 84 96 90 72 63 60 83 100 91 93 87 100 95 85 93
33 38 37 26 43 72 80 76 66 61 67 77 83 98 100 99 83 83 82 88 100 98 85 97 100 67 72
38 42 44 34 30 55 79 85 86 77 78 82 85 82 91 100 97 65 66 89 100 100 82 62 68 66 64

GFSFLT2_500_rhum_057.txt.gz
RH
85 100 97 91 90 70 75 94 95 94 83 78 72 66 64 60 53 49 43 33 26 24 23 22 21 18 14
99 97 100 100 98 96 97 99 96 90 84 70 61 57 42 36 33 31 30 27 23 22 19 17 15 14 12
99 99 99 100 99 98 96 95 82 69 64 54 43 38 37 32 25 19 14 10 8 6 6 5 5 5 6
99 100 100 100 90 75 63 59 52 45 42 40 34 26 23 18 12 8 6 5 5 6 9 10 12 12 12
100 79 66 54 46 44 39 36 37 36 30 28 24 20 13 6 5 6 9 10 12 14 16 18 20 20 19
56 43 35 26 20 16 14 16 21 23 22 14 7 5 9 14 14 14 12 10 9 10 13 15 17 18 18
18 16 14 11 8 7 7 7 7 6 5 5 10 17 18 17 17 15 11 9 14 26 40 49 50 46 40
7 6 5 4 5 6 6 5 5 13 14 10 30 26 27 27 26 26 23 16 20 38 52 62 66 70 71
4 4 6 5 4 4 6 13 15 18 14 32 41 36 41 38 36 36 37 40 27 34 48 58 66 71 72
6 5 3 7 17 19 16 14 14 35 40 40 45 38 45 51 55 49 48 56 55 46 40 42 45 48 57
4 13 16 16 18 18 16 24 42 46 40 34 47 48 41 42 79 71 69 78 66 69 72 75 76 78 75
16 18 21 23 25 22 28 48 47 45 41 40 51 46 42 56 76 85 80 80 70 83 86 89 85 84 77
18 21 23 28 32 25 36 59 58 50 36 40 50 57 55 59 66 77 76 99 83 94 98 92 85 94 100
17 20 28 32 36 28 34 62 77 75 42 42 57 65 67 74 77 63 79 86 99 99 100 96 86 73 84
19 21 28 34 38 38 29 40 64 76 81 72 66 71 74 84 87 78 77 90 84 83 94 100 78 71 96
18 21 28 36 39 46 43 32 39 60 65 66 68 77 88 100 81 81 94 99 99 84 73 94 82 66 65
28 25 29 35 35 39 48 45 32 33 55 62 69 74 76 94 94 65 76 78 85 73 70 62 66 69 60

GFSFLT2_500_rhum_060.txt.gz
RH
91 99 99 98 100 91 90 97 99 100 98 88 81 87 95 88 76 68 63 60 56 48 43 37 34 31 30
99 99 98 97 92 76 99 98 99 98 96 98 92 67 55 46 42 39 36 32 30 29 28 26 23 22 22
98 97 93 98 98 93 98 100 100 94 82 60 36 27 20 18 18 20 19 20 24 26 25 22 18 14 10
93 98 100 100 98 87 69 49 30 21 16 14 13 12 13 12 13 14 13 10 8 6 6 6 7 7 8
100 92 66 52 40 24 16 13 9 7 6 7 7 8 7 6 6 5 5 5 8 12 18 19 16 13 11
34 20 16 11 5 3 3 3 4 5 5 6 6 5 5 5 7 9 11 20 23 24 32 28 17 11 9
11 6 4 3 3 3 3 4 5 5 5 4 6 12 16 16 17 27 28 29 28 29 40 41 27 21 25
5 4 4 3 4 4 5 4 7 11 10 11 17 15 25 47 40 33 34 28 27 30 40 48 44 29 35
4 3 4 5 5 6 10 12 13 16 12 13 34 43 53 49 39 40 33 34 45 44 42 53 61 67 48
4 6 8 8 9 11 13 15 15 22 31 51 58 42 49 64 57 48 43 50 69 66 57 56 61 66 72
7 10 10 10 12 13 14 18 18 27 34 42 61 53 44 51 84 68 59 70 82 90 79 63 60 67 77
11 12 11 11 13 14 18 23 21 30 51 47 50 44 41 47 61 73 67 88 92 89 88 73 61 67 86
13 13 14 15 16 18 24 28 29 25 41 47 47 44 41 52 62 73 70 94 88 91 95 90 77 66 79
16 17 17 17 20 22 29 32 35 36 29 43 54 53 54 60 68 71 78 80 89 90 93 90 78 77 81
18 21 29 37 26 24 28 33 33 39 42 29 39 59 69 80 83 77 81 79 76 71 75 75 43 62 68
26 36 41 37 29 28 30 33 33 36 36 34 28 38 69 94 86 77 80 80 80 77 86 92 77 64 64
31 44 46 42 37 38 38 38 41 40 36 34 32 34 67 88 98 70 79 86 86 95 100 99 100 98 99

GFSFLT2_500_rhum_063.txt.gz
RH
88 86 97 96 84 94 97 96 96 93 96 96 86 74 80 86 81 78 91 86 77 69 61 51 44 41 40
37 68 90 85 92 100 100 92 94 98 88 90 85 84 80 75 64 48 36 27 21 18 16 15 16 18 17
100 100 98 99 97 96 95 96 91 74 47 31 22 16 15 14 13 11 10 10 8 6 7 8 8 8 7
100 99 97 96 95 90 51 19 11 7 6 5 4 4 3 3 3 3 4 4 5 5 5 5 5 5 5
99 100 94 66 44 31 13 8 6 5 5 3 3 3 3 4 4 4 5 5 4 4 5 7 14 23 24
98 60 20 11 6 5 5 4 4 4 4 4 4 4 4 5 5 5 6 7 8 10 24 25 28 29 28
25 21 13 8 5 5 5 4 5 5 5 7 7 6 8 9 9 8 11 22 31 29 30 32 30 34 40
18 13 10 7 6 6 4 6 8 8 8 8 8 12 26 29 34 35 30 29 29 32 31 32 40 50 54
18 13 8 7 6 4 8 10 9 10 10 12 14 22 46 51 44 38 32 34 39 44 43 44 48 55 57
13 9 9 6 6 9 12 11 10 11 11 18 23 33 57 75 60 41 39 37 47 53 56 60 68 71 66
11 9 7 7 10 13 14 15 15 15 13 17 27 31 52 63 75 48 37 50 61 68 69 79 80 70 68
10 8 8 12 14 16 18 20 26 21 17 20 25 27 34 57 69 73 61 66 73 81 78 78 71 59 56
8 8 13 15 16 19 26 35 29 22 20 20 24 28 29 34 50 59 55 86 75 74 73 74 43 46 51
8 13 16 16 21 25 37 38 28 28 28 24 27 29 34 31 36 52 62 79 80 74 72 62 48 57 60
14 19 16 23 25 33 44 40 36 38 42 33 28 30 34 35 33 47 73 87 80 69 66 74 71 87 94
24 20 28 31 32 46 53 52 51 51 48 45 42 37 37 49 43 44 85 85 74 61 50 80 95 88 97
29 38 39 36 45 63 66 67 67 64 60 52 46 36 28 33 38 51 79 90 99 100 91 97 100 100 98

GFSFLT2_500_rhum_066.txt.gz
RH
97 99 73 84 51 44 40 40 78 86 90 94 86 83 93 97 90 81 76 71 67 66 67 66 69 72 71
72 53 44 43 65 76 90 93 94 88 92 95 80 47 17 17 13 13 12 10 8 8 8 8 10 11 12
56 46 36 32 71 98 99 99 100 88 54 18 7 6 6 6 5 5 4 4 4 4 3 4 4 3 4
36 45 76 76 94 100 100 97 79 43 19 9 6 5 6 6 6 5 4 3 3 3 3 3 4 4 4
42 98 100 100 100 95 79 43 26 17 6 6 7 6 4 4 4 4 4 5 5 5 5 5 6 6 7
100 100 100 99 74 25 13 12 10 7 7 6 4 5 5 6 6 6 6 5 5 7 6 8 15 21 26
95 83 31 20 18 19 14 8 9 8 5 5 6 9 10 9 8 6 6 17 26 30 31 30 30 30 31
27 23 20 19 19 17 10 11 10 6 5 11 13 13 12 12 11 10 18 26 31 29 30 33 38 41 41
25 22 20 20 23 17 10 8 6 8 10 15 18 19 18 19 17 18 32 36 31 32 34 36 43 49 51
33 32 31 30 22 12 7 8 11 14 15 19 24 25 22 29 34 27 34 42 39 32 30 35 47 49 55
43 40 34 24 13 10 9 12 15 16 18 21 30 26 20 23 35 34 30 38 48 45 42 47 59 63 56
42 36 27 13 8 9 13 17 18 19 22 27 30 24 23 25 28 34 32 31 40 51 57 66 68 58 39
40 28 11 7 8 14 19 19 17 26 28 35 32 29 27 25 24 31 29 39 38 54 72 73 64 51 52
31 14 7 8 16 22 19 17 31 32 43 46 39 36 39 40 34 34 29 31 39 65 76 74 68 56 56
16 10 9 19 28 24 26 36 37 49 60 60 55 47 46 44 45 38 29 31 47 79 83 88 82 69 83
7 12 23 35 31 43 43 42 56 67 72 72 69 64 62 68 54 54 37 36 44 69 85 78 94 88 91
16 24 42 42 56 54 49 60 64 64 69 70 69 61 56 54 57 58 39 34 42 55 82 85 93 100 100

GFSFLT2_500_rhum_069.txt.gz
RH
75 99 95 99 99 98 100 89 66 45 48 91 96 98 97 88 82 76 70 62 52 51 54 48 48 42 38
100 99 100 96 96 97 85 60 39 29 81 91 100 91 65 56 54 44 35 27 18 7 6 6 7 7 5
95 94 89 75 72 80 46 56 96 100 100 99 88 61 20 13 8 6 6 7 8 7 5 4 4 4 4
98 80 72 55 55 42 51 91 100 99 81 37 18 15 12 8 8 7 6 5 4 4 4 4 4 3 3
99 82 59 48 70 94 99 86 59 38 21 17 12 9 10 11 9 7 6 5 5 5 6 7 7 6 5
94 92 100 100 97 67 42 29 29 20 18 13 9 12 12 10 8 7 7 6 7 9 9 6 12 22 21
88 74 55 39 29 24 21 19 18 20 22 21 9 8 8 6 7 8 9 13 14 12 8 17 29 32 30
31 31 31 31 30 28 27 29 31 30 22 11 8 8 10 11 14 15 17 18 16 12 15 33 39 34 33
36 38 40 42 43 44 42 39 33 23 12 10 10 13 16 17 19 21 22 19 16 15 21 33 35 30 34
45 47 48 46 44 42 39 31 22 11 8 9 12 14 18 24 30 30 25 21 19 20 22 29 34 28 28
46 44 43 45 45 43 34 16 9 8 9 14 19 19 19 30 38 33 29 27 24 23 24 30 36 33 33
51 52 53 48 38 24 12 10 12 15 19 22 22 19 28 41 41 38 37 37 29 24 27 32 37 46 57
49 45 44 28 13 7 8 14 23 28 27 24 20 32 38 49 51 47 41 49 38 28 31 35 52 68 67
42 38 27 14 10 9 17 28 34 26 23 36 37 39 56 60 58 56 49 44 45 31 30 39 55 81 78
43 36 17 9 10 18 34 37 37 52 48 40 45 56 58 60 61 56 56 50 39 27 30 42 50 80 80
45 32 9 11 17 32 39 49 54 51 58 58 52 51 52 58 51 58 57 50 43 32 29 37 44 73 82
45 14 10 18 25 34 40 47 54 63 58 54 52 50 47 47 58 56 50 50 42 34 29 31 40 55 72

GFSFLT2_500_rhum_072.txt.gz
RH
88 84 83 83 87 96 100 98 100 99 97 96 86 64 43 38 59 79 79 66 62 64 64 61 51 44 41
94 81 84 100 98 100 100 98 96 93 85 93 56 66 91 82 76 84 79 69 48 28 14 13 11 9 10
100 98 100 96 84 98 96 99 96 73 54 49 61 100 95 85 61 46 28 18 14 9 9 9 8 7 7
100 100 84 89 96 94 81 72 56 73 92 92 81 60 32 21 20 16 13 10 12 13 12 12 12 11 9
95 97 95 99 97 93 96 98 98 84 46 39 25 21 20 20 19 14 12 11 12 16 11 9 9 8 7
76 82 86 83 81 68 53 39 32 26 21 20 20 19 22 25 27 26 19 11 9 11 8 7 7 7 9
52 48 44 39 33 29 29 30 31 33 33 33 35 37 37 34 25 16 11 10 8 7 8 9 10 15 15
28 30 30 31 32 34 36 39 41 44 45 43 42 37 29 20 12 10 9 8 8 10 14 15 19 18 17
35 36 36 37 37 39 42 42 43 44 44 42 36 25 15 12 10 11 11 12 15 18 18 21 21 16 18
34 34 35 37 41 46 48 48 41 42 36 20 12 12 13 14 16 18 20 19 19 22 25 26 22 19 20
35 36 36 39 42 38 31 31 25 18 13 10 12 15 21 30 31 28 24 22 31 31 35 30 28 23 22
34 35 36 35 34 34 34 25 11 8 8 15 25 28 30 31 32 28 34 44 46 50 47 39 32 26 23
37 35 33 29 27 31 19 7 7 10 16 29 38 37 32 27 33 51 53 62 63 64 60 51 39 30 24
35 24 27 28 30 31 15 8 11 14 27 34 34 45 49 49 56 70 71 76 78 73 63 57 46 34 27
28 34 40 38 38 38 17 12 18 22 31 42 46 46 55 60 59 52 54 55 54 59 57 54 49 36 27
44 53 55 51 47 42 16 16 22 29 36 38 44 49 52 57 53 56 52 52 47 44 45 45 48 47 31
78 77 70 62 57 36 18 20 25 29 36 44 46 50 62 70 74 57 53 59 61 48 43 42 43 44 35

GFSFLT2_500_rhum_075.txt.gz
RH
37 46 72 83 88 97 73 73 83 99 100 97 99 97 97 92 92 87 85 72 55 55 65 64 58 56 58
45 38 81 79 100 90 65 51 75 86 96 95 97 97 98 89 58 53 61 78 87 84 79 74 70 64 58
51 54 75 86 86 86 92 79 72 84 81 83 76 70 72 80 88 90 93 90 75 64 47 33 23 19 15
51 62 66 75 83 83 72 72 78 79 80 85 89 91 81 68 47 41 31 25 23 21 17 12 12 12 13
50 59 66 66 66 66 62 60 62 58 53 41 32 29 22 20 18 17 18 19 21 23 24 24 21 15 10
18 21 22 23 24 26 27 29 31 35 37 35 37 35 36 34 32 34 37 40 39 34 25 18 13 10 10
20 22 23 24 24 26 27 28 30 34 34 36 42 43 44 44 42 40 40 40 35 26 17 12 10 10 9
28 28 28 29 29 29 28 28 30 34 36 39 40 35 32 33 37 38 33 26 19 14 12 12 12 12 13
33 32 31 29 27 28 29 29 30 32 29 24 21 21 19 16 16 14 10 11 13 14 16 17 18 18 18
34 31 29 29 29 29 30 30 27 20 18 21 18 8 7 7 9 12 15 19 22 23 25 24 22 20 30
33 31 30 30 31 31 26 22 21 21 24 24 13 8 8 11 19 26 31 32 32 30 28 24 24 33 38
32 31 32 34 34 27 25 30 32 34 32 23 9 9 12 20 34 38 35 32 28 26 29 35 37 42 51
36 39 41 42 37 33 40 49 49 43 39 14 10 16 17 27 35 40 42 45 45 48 55 62 63 58 55
46 49 55 60 64 70 71 65 58 50 46 18 14 20 24 33 43 52 51 61 59 52 51 54 52 52 54
59 62 66 72 81 84 82 74 67 64 55 26 17 24 30 39 51 49 52 53 53 58 57 58 56 51 54
65 68 74 82 89 89 88 83 77 77 65 32 18 25 30 42 49 57 60 56 59 60 56 57 66 59 49
74 75 78 91 96 98 99 96 90 91 77 34 23 26 35 39 56 53 58 59 61 72 68 64 63 70 62

GFSFLT2_500_rhum_078.txt.gz
RH
29 28 31 34 32 55 65 72 100 70 57 55 77 84 95 96 98 99 99 96 93 91 93 90 94 87 81
36 35 36 40 51 56 59 60 98 68 56 79 73 82 77 88 88 88 93 95 93 77 90 97 100 98 98
29 40 39 37 46 57 62 70 74 75 74 74 76 75 75 74 84 88 93 97 94 90 91 100 98 96 88
21 27 16 12 15 19 27 34 40 44 47 52 51 50 46 52 45 41 40 40 40 41 47 41 30 22 20
14 14 15 17 19 19 20 21 22 24 26 27 26 26 31 34 36 36 34 30 26 21 18 18 19 20 22
16 17 20 23 24 23 22 22 21 22 20 20 27 29 38 42 43 43 44 44 44 45 46 46 45 42 39
22 23 26 28 28 27 26 25 23 21 21 21 24 25 25 25 22 20 19 20 19 21 30 35 32 29 26
31 34 36 36 33 30 26 24 23 21 21 23 24 22 18 16 16 17 16 11 7 7 8 11 13 14 15
41 42 41 39 34 29 26 24 23 23 23 23 21 20 22 24 24 22 15 9 7 9 12 17 20 21 23
49 47 44 41 35 30 28 28 29 30 28 27 30 36 40 36 29 17 8 7 9 10 22 31 34 34 32
58 55 50 44 37 36 37 38 40 39 37 44 54 54 46 40 29 12 10 14 13 19 30 34 35 35 33
64 62 57 51 48 49 49 52 54 56 63 68 66 60 52 52 24 12 14 19 22 28 32 36 37 38 40
69 70 68 63 59 58 58 62 67 66 74 81 76 69 67 62 26 16 19 23 22 25 32 41 43 42 42
76 74 71 66 64 65 66 66 75 79 87 90 89 82 82 72 32 22 22 29 35 30 32 39 40 43 45
71 65 48 38 32 37 50 54 79 88 96 96 94 90 92 85 44 29 27 32 35 42 43 50 52 50 49
46 17 13 13 14 17 20 37 93 100 100 99 95 88 89 94 77 44 33 32 36 42 52 58 73 74 65
13 13 12 12 14 16 21 58 96 100 100 98 92 85 90 98 90 66 37 35 43 47 54 60 66 88 71

GFSFLT2_500_rhum_081.txt.gz
RH
14 20 30 33 33 35 32 31 44 57 59 44 44 56 70 73 80 74 91 98 97 94 94 99 98 98 98
16 22 24 21 29 23 13 16 34 48 56 66 69 78 81 77 74 71 74 80 85 86 75 84 96 99 98
13 13 13 13 12 12 14 16 17 17 20 30 36 43 52 51 58 64 71 72 75 86 87 95 94 99 100
14 14 12 13 14 17 20 21 22 22 22 22 21 21 21 22 24 24 24 25 26 27 27 30 44 57 70
17 15 15 17 19 21 25 27 27 26 25 24 23 21 21 21 20 20 22 23 25 27 32 36 38 36 28
21 21 21 21 24 27 31 32 31 29 26 24 21 18 17 17 18 21 24 20 17 16 16 18 19 24 33
28 30 32 34 38 39 39 37 34 30 25 22 21 20 20 19 19 20 19 19 18 20 21 19 16 9 8
35 37 39 41 44 45 42 40 37 31 27 26 25 25 25 25 24 24 27 33 35 29 27 21 14 9 7
44 45 46 49 52 53 51 47 41 37 36 35 35 35 34 33 34 38 48 49 38 33 21 11 7 9 9
55 55 55 57 59 60 59 56 51 49 47 47 46 48 52 54 59 60 57 51 40 37 18 11 14 15 13
66 65 63 64 65 65 65 63 59 54 49 47 54 61 66 70 76 76 70 58 53 37 13 17 19 21 23
76 75 72 70 69 66 61 42 22 13 14 21 31 47 64 81 93 88 79 68 65 43 16 22 25 26 32
81 78 71 66 59 40 16 13 15 14 12 12 16 24 66 95 100 100 95 74 70 66 27 21 29 32 32
78 72 65 55 22 13 13 14 14 19 16 13 15 38 89 98 100 100 95 95 84 70 65 30 26 34 35
70 66 52 15 13 16 21 24 25 25 19 14 25 56 87 97 100 98 100 97 88 83 74 60 32 30 36
67 58 18 15 16 20 22 28 37 33 17 17 40 68 86 99 98 100 100 96 87 90 87 81 44 37 37
60 16 14 15 18 20 19 28 40 28 17 23 54 70 82 91 100 100 98 92 95 100 93 70 44 53 47

GFSFLT2_500_rhum_084.txt.gz
RH
17 16 13 13 13 13 15 15 12 10 12 16 27 39 53 60 65 71 77 76 72 90 100 95 100 99 98
16 14 14 13 12 11 11 11 12 14 15 16 16 16 18 24 36 48 58 61 59 68 77 77 86 89 88
15 15 15 14 13 12 12 13 15 18 22 22 22 21 20 20 19 18 17 17 17 20 40 61 72 73 71
17 17 17 18 17 16 16 17 19 22 26 29 28 27 25 23 21 19 18 16 16 16 15 16 19 19 21
20 21 22 23 23 24 24 25 27 31 34 34 33 30 25 23 21 19 18 18 18 18 18 16 15 14 13
27 27 28 29 31 33 34 35 38 40 39 38 36 32 28 25 24 23 22 22 21 21 20 20 19 18 18
40 39 39 39 39 39 39 42 46 48 46 44 40 35 32 31 31 31 30 28 27 27 27 27 30 34 32
54 53 52 51 50 49 48 49 51 53 54 53 50 47 46 45 44 44 42 41 38 36 39 44 44 42 37
59 60 61 61 60 58 55 53 54 56 56 57 56 49 41 21 13 14 19 42 56 57 61 62 57 46 33
55 63 69 66 64 61 60 58 58 57 52 31 14 15 15 15 16 16 15 17 50 69 75 78 71 54 44
59 66 70 68 64 63 58 54 50 29 14 17 20 22 22 24 20 14 12 17 47 84 99 94 81 69 58
55 62 70 68 64 58 53 48 23 16 18 20 23 28 32 33 22 14 12 29 82 100 100 100 99 78 65
62 65 66 64 58 56 57 19 17 18 19 21 27 38 39 31 17 18 28 62 90 92 100 100 100 90 69
61 62 61 54 55 56 31 15 18 17 18 19 32 42 43 27 16 36 70 93 92 88 86 93 98 100 94
60 58 55 54 63 55 16 16 16 17 18 26 33 45 42 19 21 51 88 93 87 85 85 88 88 89 94
67 68 68 68 70 35 14 15 15 17 20 27 38 51 35 18 33 76 92 86 79 81 84 88 99 93 89
84 83 84 80 78 45 14 14 16 19 25 33 46 52 28 17 60 92 84 83 85 88 84 81 74 67 65

GFSFLT2_500_rhum_087.txt.gz
RH
17 20 20 18 14 13 13 12 10 9 9 11 13 16 17 17 16 16 16 17 20 39 56 69 90 98 98
24 24 22 17 14 15 14 13 12 11 12 13 16 19 22 24 23 22 21 20 17 15 18 21 47 64 67
27 26 21 17 17 18 19 18 18 17 17 17 19 22 26 29 29 27 25 22 19 16 14 13 14 15 16
30 27 20 20 22 23 24 25 26 26 28 29 32 35 35 34 32 30 26 22 20 19 18 17 16 14 13
32 28 28 30 32 32 32 32 32 33 34 37 39 40 39 37 36 34 30 26 25 24 24 24 23 22 20
37 37 40 43 44 43 43 42 43 42 43 44 45 46 46 47 45 42 39 38 38 37 36 35 32 29 27
44 48 46 49 50 51 53 53 52 51 50 50 49 49 51 53 54 53 49 42 27 14 16 23 30 39 38
49 49 51 50 50 56 59 58 55 55 54 52 52 50 48 43 24 12 11 12 12 13 13 14 15 17 34
55 52 48 52 53 57 62 59 58 57 54 49 43 34 18 15 17 18 21 21 20 20 20 18 14 15 15
56 50 50 53 52 52 54 56 56 56 48 43 33 15 17 19 21 24 25 21 22 24 24 18 12 13 27
56 54 56 55 53 50 52 53 50 48 49 37 17 18 18 19 21 31 31 28 29 29 21 13 15 41 93
60 59 57 56 55 53 51 47 42 44 46 24 17 18 17 18 27 37 36 34 34 26 15 18 47 87 100
70 67 60 55 55 52 49 48 50 51 46 19 17 17 16 17 25 38 46 43 36 25 16 39 76 88 93
80 76 69 61 60 58 56 59 59 59 52 18 15 15 15 19 30 47 58 50 35 23 20 41 77 92 99
91 83 75 73 72 72 75 78 75 70 66 40 14 14 19 31 42 55 58 53 35 21 25 50 67 74 78
96 90 82 78 82 83 89 95 89 83 78 53 16 17 26 36 52 57 64 62 34 20 35 58 81 85 77
100 98 94 91 90 89 91 100 100 95 85 45 16 19 24 34 65 65 67 81 26 22 52 68 43 20 19

GFSFLT2_500_rhum_090.txt.gz
RH
19 15 17 20 21 22 21 15 14 14 14 13 12 12 13 16 20 22 25 26 24 21 18 16 15 15 32
20 20 22 25 26 24 20 16 16 17 18 19 19 18 18 20 24 28 32 32 30 27 23 20 16 15 14
25 26 29 30 28 25 21 20 23 26 26 25 26 28 29 30 31 33 34 34 33 31 27 22 20 18 18
31 35 34 33 32 31 32 34 35 36 35 35 36 37 37 38 38 41 41 39 38 36 32 29 27 25 24
41 38 37 37 38 40 42 44 44 43 43 44 46 45 44 44 44 45 46 46 46 46 44 43 42 40 38
41 40 40 42 44 42 42 42 41 42 49 51 51 50 49 47 45 43 42 41 42 35 17 10 9 9 9
43 44 45 48 45 43 42 40 43 48 53 53 53 51 48 43 38 33 30 24 12 11 14 12 10 10 10
46 49 54 53 48 44 39 42 46 49 54 52 51 50 45 38 35 25 15 15 16 16 12 12 13 13 14
54 60 61 57 48 44 42 44 42 40 48 48 47 45 40 36 26 16 18 19 20 21 20 20 20 21 19
67 68 67 60 53 49 47 44 46 46 47 46 40 39 40 36 19 17 18 17 19 27 26 27 28 28 25
82 80 72 67 59 56 51 46 47 51 46 41 40 42 45 38 18 17 18 17 16 23 39 46 48 40 29
94 86 78 76 68 64 59 54 51 49 51 49 49 52 54 46 21 17 17 16 16 25 47 57 59 53 35
98 87 90 91 83 75 69 65 61 62 64 68 69 68 63 62 47 28 14 15 23 37 48 58 65 63 37
100 99 93 95 92 88 83 77 71 69 73 76 83 84 79 74 65 34 16 20 25 32 52 64 70 73 44
100 100 99 99 98 96 95 89 86 82 80 78 86 95 94 87 66 28 18 18 21 40 65 78 83 48 22
100 100 100 100 100 100 98 95 93 92 92 86 86 95 95 95 59 21 18 22 43 67 64 78 59 36 24
100 100 100 100 100 100 97 98 97 94 96 91 89 92 100 84 25 20 33 66 72 66 77 72 44 21 42

GFSFLT2_500_rhum_093.txt.gz
RH
44 27 43 25 19 22 27 28 25 23 17 17 18 19 20 20 19 19 21 25 31 33 33 31 27 23 20
32 47 46 33 24 32 30 29 27 23 22 26 29 29 27 27 29 31 32 34 35 35 34 34 32 28 24
60 46 31 31 38 34 33 31 32 32 33 36 37 36 36 37 38 39 40 40 39 41 41 41 38 34 30
58 40 44 59 39 36 35 36 37 39 40 43 43 40 40 42 45 45 44 42 41 42 44 46 46 45 44
74 69 64 45 40 38 39 42 41 42 40 37 41 38 42 45 44 42 40 40 40 40 40 41 40 22 12
77 67 52 49 42 43 47 47 43 38 39 39 40 42 43 43 38 38 37 33 30 29 29 23 10 11 9
92 59 72 47 47 51 52 52 43 42 39 39 37 38 39 38 36 37 34 29 26 23 15 12 12 10 11
76 87 55 52 57 60 61 56 48 44 39 36 36 36 38 39 38 34 31 28 24 16 15 17 16 15 15
90 63 60 62 70 71 68 60 53 49 43 40 39 41 41 37 32 32 33 35 27 17 17 17 17 19 21
72 69 70 77 83 78 71 66 59 53 48 45 44 43 41 39 39 40 41 41 30 18 18 18 18 17 17
85 74 88 97 95 86 76 74 69 69 60 54 50 48 50 51 54 57 58 53 48 33 18 17 15 16 26
88 94 99 98 97 87 83 84 82 81 76 67 65 65 64 67 71 75 76 69 63 55 43 19 17 24 30
100 100 99 96 99 96 92 92 91 90 90 89 80 75 76 78 84 80 89 90 81 65 33 18 20 22 23
100 94 95 100 96 96 98 99 98 100 100 99 96 91 90 91 91 88 94 94 80 67 32 20 19 29 54
100 100 100 97 93 99 100 100 100 99 95 96 96 98 99 98 99 94 95 87 83 47 20 29 56 68 68
98 97 100 98 99 100 100 100 100 99 100 95 95 99 100 100 98 94 87 82 46 26 42 55 77 67 72
99 99 99 100 100 100 100 100 98 98 94 90 96 99 100 99 98 87 79 34 44 62 63 70 81 81 86

GFSFLT2_500_rhum_096.txt.gz
RH
42 33 39 42 45 40 48 25 27 32 30 27 23 21 25 29 29 27 26 28 31 32 34 36 37 35 33
49 45 41 42 45 53 37 32 35 39 31 30 30 32 35 36 35 35 36 38 38 39 40 41 40 39 39
70 51 41 45 53 50 37 55 58 35 35 36 37 39 39 40 40 39 41 43 44 43 42 41 40 40 41
54 45 50 59 60 47 74 58 41 39 38 41 42 40 38 35 39 40 40 40 39 37 35 33 33 32 34
57 66 72 59 73 91 60 53 48 42 44 44 43 40 36 35 36 38 38 34 32 31 29 25 23 24 25
78 85 77 84 97 71 58 67 46 48 49 48 40 37 36 37 36 34 31 31 33 33 28 23 22 20 18
81 77 95 98 99 76 90 55 55 56 58 52 41 36 32 30 31 32 34 34 32 31 27 26 23 18 14
100 99 97 99 99 97 67 62 64 65 64 52 44 38 36 36 33 33 33 32 29 29 30 32 30 20 16
100 100 99 99 100 84 84 79 77 75 69 57 53 45 42 42 39 36 34 36 37 40 43 42 35 23 18
100 100 99 100 98 100 100 93 93 86 77 67 62 58 55 52 47 44 43 46 49 54 61 61 52 39 24
100 99 99 100 99 100 100 100 94 85 79 79 78 76 72 65 64 61 58 58 61 65 72 79 68 60 53
100 99 100 100 100 100 100 98 97 89 87 86 87 90 92 91 90 83 78 79 80 77 76 85 92 83 66
100 100 100 100 100 100 100 97 100 99 94 87 90 96 98 96 92 91 91 91 88 87 89 90 90 81 73
100 100 99 100 100 100 100 100 100 97 99 95 92 98 100 100 97 88 91 86 85 94 91 85 84 77 41
100 100 100 98 98 100 100 94 93 94 99 100 99 100 100 99 100 93 94 91 83 80 84 85 71 34 47
100 99 100 100 100 100 94 93 96 99 99 96 97 96 98 91 90 89 90 83 81 78 63 44 52 70 76
99 97 97 97 99 100 100 100 100 97 95 93 89 92 92 87 86 81 72 55 38 40 50 59 67 78 81

GFSFLT2_500_rhum_099.txt.gz
RH
68 63 58 64 59 38 38 41 41 51 43 32 35 46 29 26 28 31 32 31 32 33 34 34 34 35 38
78 63 64 77 79 70 50 40 51 54 34 37 58 33 34 35 38 39 39 39 38 37 38 39 40 39 39
78 86 78 81 82 60 44 57 53 48 52 64 45 38 39 42 43 46 44 40 38 39 41 41 38 31 28
63 61 66 64 50 46 62 62 59 54 83 63 42 44 44 43 44 41 39 37 36 35 33 29 28 26 22
65 53 62 66 69 77 76 63 58 88 59 53 55 49 48 45 40 39 35 36 35 30 30 31 32 27 22
63 91 84 90 96 89 83 89 100 71 70 74 54 53 52 44 39 36 32 32 30 30 31 29 28 25 23
95 100 100 100 88 86 87 100 95 76 98 69 62 61 56 46 40 34 33 32 31 31 28 26 26 27 29
99 100 100 100 100 100 100 100 98 100 86 79 76 69 60 54 46 40 38 37 35 32 32 32 34 38 43
100 100 99 100 100 100 100 100 100 100 99 97 90 76 65 60 54 49 48 48 43 40 40 42 45 48 54
100 100 100 100 100 100 100 100 100 100 100 98 96 82 76 73 66 62 63 60 56 57 58 56 58 61 62
99 100 100 100 100 100 100 100 100 100 100 100 90 80 78 79 77 78 79 80 84 82 77 76 77 76 75
100 100 100 100 100 100 100 100 100 100 100 100 98 91 85 82 88 88 86 87 94 96 91 86 82 77 82
100 100 100 99 100 100 100 100 100 100 100 100 100 100 92 91 94 90 87 94 94 90 89 82 81 80 72
100 100 100 100 100 100 100 100 100 100 100 96 95 93 96 98 88 78 86 90 89 86 79 78 78 67 68
100 100 100 98 100 100 100 100 99 100 98 94 94 94 98 94 89 82 82 80 73 76 73 70 59 44 39
100 100 100 100 100 100 100 100 100 100 99 100 98 95 100 95 96 93 83 70 67 62 57 37 30 38 44
100 100 99 100 100 100 100 100 100 100 100 100 97 99 100 99 100 94 79 74 64 34 25 37 43 46 50

GFSFLT2_500_rhum_102.txt.gz
RH
73 86 86 86 87 93 88 84 92 86 90 63 59 49 34 41 37 34 28 31 34 35 34 36 36 34 38
100 100 100 94 90 89 84 96 96 87 88 62 66 44 39 52 34 36 38 40 41 41 39 34 32 33 34
99 93 80 77 71 67 66 74 92 85 72 59 53 46 58 48 40 44 46 46 42 36 38 34 32 28 22
64 61 65 66 69 70 56 54 56 52 59 58 58 78 81 46 57 50 47 42 40 41 41 34 29 27 27
57 61 67 75 73 57 65 71 77 83 83 74 79 99 63 78 57 53 47 42 43 43 39 31 29 29 28
61 71 78 92 81 76 98 100 100 96 100 93 97 86 97 85 63 56 47 43 43 40 33 31 31 27 24
70 77 93 90 98 94 100 100 97 96 96 100 96 97 100 91 72 61 51 46 42 40 35 34 31 29 28
68 84 84 100 91 99 100 99 99 100 100 100 99 100 100 96 85 67 55 51 47 44 42 40 36 34 35
83 93 98 100 100 100 99 100 100 100 100 100 100 100 100 100 92 74 64 60 55 52 52 49 46 45 48
92 96 100 100 100 100 100 100 100 100 100 100 100 100 100 100 98 89 80 77 74 71 67 64 64 64 63
83 99 100 100 100 100 100 100 100 100 100 100 100 100 100 100 100 96 95 94 91 87 87 91 90 87 86
81 97 100 100 100 100 100 100 100 100 100 100 100 100 100 100 100 100 100 100 100 93 89 91 90 86 81
94 100 100 100 100 100 100 100 100 100 100 100 100 100 100 100 100 100 100 98 100 92 87 92 91 85 74
98 99 95 95 100 100 100 100 100 100 100 100 100 100 100 99 96 100 98 94 93 94 93 89 84 70 57
99 97 94 94 94 100 100 100 100 100 100 100 100 98 96 94 97 96 94 93 100 100 93 81 70 60 46
94 88 87 97 100 100 100 97 100 100 100 96 97 95 99 98 99 98 96 98 99 100 95 81 66 55 27
97 100 100 99 100 100 100 100 100 98 100 100 100 97 99 99 100 100 90 90 94 96 87 81 72 26 33

GFSFLT2_500_rhum_105.txt.gz
RH
58 60 79 88 97 99 97 94 96 96 98 95 98 97 91 54 79 40 35 29 29 28 32 33 33 35 36
57 68 92 100 100 98 97 96 97 94 89 95 94 87 95 93 77 41 34 32 38 38 39 39 39 35 38
52 52 57 63 75 75 68 62 66 72 61 56 80 88 91 80 71 40 51 40 47 44 43 39 37 36 38
33 41 45 51 57 59 60 59 66 67 59 52 63 58 59 59 68 59 81 69 52 51 44 38 37 35 30
42 48 51 55 56 62 66 75 74 62 68 72 68 65 86 61 99 96 79 82 59 51 44 39 37 33 28
52 53 56 60 62 70 81 85 87 81 91 95 96 100 99 100 99 87 100 91 70 54 48 43 36 32 30
60 66 66 69 71 82 89 97 100 99 98 100 99 100 100 100 99 100 100 99 85 60 51 45 40 36 32
56 66 75 78 75 81 95 95 100 100 100 99 96 95 100 99 100 100 100 100 92 64 51 46 42 40 38
71 84 86 90 99 98 99 100 100 100 100 100 98 100 100 100 100 100 100 100 98 79 60 53 50 49 48
70 81 84 80 94 98 99 96 100 100 100 100 100 100 100 100 100 100 100 100 100 88 83 71 66 64 62
72 82 88 86 84 94 96 100 100 100 100 100 100 100 100 100 100 100 100 100 100 99 100 97 89 86 85
80 86 94 89 80 97 96 93 96 96 96 100 100 100 100 100 100 100 100 100 98 98 97 96 95 95 97
87 86 100 99 94 92 90 91 94 99 100 100 100 100 100 100 100 100 100 100 100 99 94 93 93 95 93
97 99 99 99 100 100 100 95 94 99 100 100 100 100 100 100 100 100 100 100 98 100 100 99 96 93 94
98 100 100 100 100 100 97 92 89 100 100 100 100 100 100 100 100 100 100 100 100 100 98 98 98 100 98
100 100 100 100 100 93 84 84 95 99 100 100 100 100 100 100 98 100 100 100 100 100 100 100 97 100 93
100 100 100 96 95 92 93 99 100 100 100 100 100 100 100 98 100 100 96 93 100 100 100 100 95 95 89

GFSFLT2_500_rhum_108.txt.gz
RH
62 80 78 72 73 71 70 91 100 98 96 98 99 100 99 100 98 99 98 75 57 32 26 25 24 26 26
90 70 47 49 39 34 36 49 68 77 79 86 83 91 92 97 96 91 66 98 56 29 27 32 32 33 32
20 22 21 22 26 30 37 46 53 57 55 54 65 73 61 57 78 100 99 100 44 32 34 40 37 38 39
22 25 25 28 33 40 45 51 55 55 58 69 78 69 60 57 78 89 93 97 45 53 50 52 44 44 45
20 25 28 34 41 47 50 53 57 60 70 75 81 66 76 75 79 61 77 78 96 84 92 56 54 51 47
18 22 29 36 42 55 61 62 69 69 91 96 98 89 96 94 77 68 80 100 100 99 92 80 60 54 49
20 22 37 44 46 57 70 74 77 79 84 88 100 100 100 100 97 100 100 100 98 100 100 98 67 58 51
23 28 45 47 59 68 69 74 81 94 99 100 94 100 100 99 99 100 100 98 100 100 100 99 73 62 52
28 37 46 57 62 76 82 88 87 100 100 100 96 100 98 92 97 100 100 100 100 100 99 98 80 64 54
37 48 50 61 67 83 80 88 85 89 97 100 98 98 100 100 100 100 100 100 100 100 100 99 99 79 64
55 54 50 62 72 78 86 84 84 86 88 91 90 93 100 100 100 100 100 100 100 100 99 98 97 93 95
59 57 54 65 82 84 92 86 87 86 87 87 84 95 99 100 100 100 100 100 100 100 99 97 95 97 100
60 66 72 81 90 98 100 100 92 86 86 91 100 100 100 100 100 97 100 100 100 100 100 98 94 94 94
84 85 87 97 100 100 100 100 100 98 99 98 99 100 100 100 100 100 100 100 100 100 100 98 94 93 95
91 90 95 98 100 100 100 100 98 99 100 98 96 98 100 100 100 100 100 100 100 100 99 100 96 98 100
88 89 91 97 100 100 100 100 100 100 99 95 98 100 100 100 100 100 100 100 100 100 100 100 96 96 100
91 96 97 99 100 100 100 100 100 100 93 93 100 100 100 100 100 100 100 100 100 100 100 98 86 91 98

GFSFLT2_500_rhum_111.txt.gz
RH
24 32 34 39 38 36 19 19 22 26 34 50 74 75 86 90 98 98 99 100 98 92 99 95 58 86 99
21 14 9 10 13 17 20 20 24 30 38 47 54 52 64 69 76 81 96 98 100 96 96 91 43 55 76
12 10 9 12 14 17 19 22 28 36 40 48 55 51 57 67 74 69 56 68 99 79 99 71 37 27 27
14 12 14 16 17 15 17 26 32 37 46 51 56 59 66 78 83 69 64 73 100 100 100 92 72 42 46
17 16 18 17 16 14 16 24 34 43 56 60 61 63 78 94 88 78 82 86 96 99 100 99 94 68 48
20 17 18 17 17 16 17 31 34 42 59 68 69 69 90 91 100 98 97 87 100 79 91 98 97 98 60
24 20 24 22 22 20 24 32 39 51 59 66 74 80 91 99 98 100 100 100 98 81 96 100 100 100 91
28 27 30 29 26 24 29 41 46 64 72 74 86 98 98 98 100 100 100 100 100 100 100 100 100 100 100
30 33 37 35 33 36 37 48 54 73 82 89 81 97 92 99 100 100 100 100 100 100 100 100 100 100 100
43 48 45 41 42 48 45 50 62 74 80 89 88 96 97 92 80 100 99 94 100 100 100 100 100 100 100
51 57 50 48 56 62 55 51 73 82 87 90 88 87 87 88 92 100 100 100 100 100 100 100 100 100 100
66 59 54 52 55 60 58 60 83 98 98 91 79 83 87 88 90 95 98 98 98 100 100 100 100 100 100
70 64 56 60 70 73 80 86 99 100 100 100 90 89 94 100 93 95 98 100 100 100 100 100 100 100 100
73 70 72 77 88 87 85 93 100 100 100 100 100 100 100 99 100 96 96 100 100 98 94 100 100 100 100
82 82 82 84 89 88 93 99 100 100 100 100 100 100 100 100 99 100 100 100 99 100 99 96 100 100 100
87 95 94 90 89 94 94 98 100 100 100 100 100 100 100 100 99 98 100 100 100 100 100 100 97 100 100
97 97 97 96 97 98 99 99 100 100 100 100 100 100 98 97 95 99 100 100 100 100 100 100 100 100 100

GFSFLT2_500_rhum_114.txt.gz
RH
16 16 20 21 20 15 9 10 11 12 13 17 20 22 30 32 33 38 55 78 91 100 99 98 85 74 95
17 19 26 22 17 12 11 11 11 11 12 20 26 26 40 40 39 42 47 55 72 71 94 98 98 99 94
18 24 24 20 17 15 14 14 12 10 12 18 28 30 43 50 49 46 56 68 74 69 75 98 99 100 97
23 26 21 20 19 19 17 15 13 13 13 22 27 33 50 62 56 55 72 83 76 75 76 94 98 97 95
35 28 24 24 24 21 18 18 17 16 16 28 29 32 52 68 65 65 74 82 84 80 94 100 100 100 81
38 29 31 30 26 24 22 22 23 21 23 27 34 41 51 69 74 78 83 73 92 97 95 97 100 100 100
36 36 35 32 31 25 22 27 28 27 33 41 46 58 61 64 75 86 94 98 96 100 99 100 100 99 97
47 45 40 35 30 33 36 38 35 36 42 50 58 70 79 72 80 98 96 99 99 99 100 100 99 99 100
47 46 39 35 40 43 44 46 42 49 51 55 69 80 90 88 85 98 93 87 96 100 88 98 96 99 99
45 50 48 45 50 59 57 52 53 58 60 61 76 88 90 100 93 89 87 77 93 100 95 100 100 100 100
46 46 54 68 72 63 58 54 54 56 60 62 85 100 100 100 98 94 88 77 87 99 98 100 100 100 100
54 64 79 78 73 68 60 56 62 69 77 92 98 100 100 100 100 98 90 87 91 94 96 100 100 99 100
67 69 77 78 74 68 66 72 84 92 92 100 100 100 100 100 100 100 96 92 88 93 98 95 94 100 100
74 78 79 82 83 84 82 86 92 92 98 99 100 100 100 100 100 100 100 100 96 91 98 100 91 96 100
80 84 88 94 90 94 95 92 98 100 100 100 100 100 100 100 100 100 100 100 100 98 100 100 100 99 98
84 94 100 99 95 100 100 100 100 100 99 98 100 100 100 100 100 100 100 100 100 100 100 100 98 100 100
96 100 100 100 100 100 100 100 100 100 100 100 100 100 100 100 100 100 100 100 100 100 97 100 97 96 100

GFSFLT2_500_rhum_117.txt.gz
RH
20 21 16 16 16 16 20 24 22 16 13 14 11 10 10 10 16 23 31 31 35 36 41 74 99 97 99
22 26 22 17 17 20 24 25 21 18 17 16 13 12 11 10 15 27 37 41 39 41 40 57 75 99 100
28 26 22 19 21 24 26 21 20 21 22 17 15 15 14 13 15 27 54 45 45 50 53 55 69 96 99
30 26 24 22 26 31 28 23 24 26 23 19 17 16 16 18 21 34 58 52 48 60 68 70 79 96 100
28 25 24 28 33 43 33 29 30 27 26 22 21 19 20 22 31 43 58 64 57 63 70 74 83 99 100
27 27 30 34 30 32 36 35 34 34 30 28 27 24 25 38 49 59 63 64 82 86 83 98 98 100 100
30 30 31 34 31 39 46 43 39 31 34 38 35 32 39 54 66 72 67 72 89 96 99 99 100 100 100
25 23 24 27 38 49 44 42 37 38 39 46 43 44 47 59 76 83 73 83 90 100 100 100 99 100 100
24 28 37 45 55 45 46 51 48 46 53 54 51 55 54 64 85 87 78 85 89 93 100 97 100 100 100
35 46 49 59 60 56 44 37 62 64 61 56 53 56 57 56 88 88 90 97 92 85 85 100 98 91 96
36 51 62 63 55 47 53 71 73 68 62 55 58 64 71 81 92 97 97 97 98 95 86 94 86 94 95
63 66 67 55 62 68 61 73 75 68 61 61 73 87 88 97 97 99 99 98 99 100 96 100 100 100 95
74 77 76 78 75 76 83 78 76 71 72 76 88 96 94 100 100 100 100 98 97 99 96 94 97 95 96
82 74 76 77 77 86 85 85 81 76 79 86 92 100 100 100 100 100 100 100 100 100 100 99 99 100 100
72 67 68 72 80 86 93 90 87 88 91 92 98 100 100 100 100 100 100 100 100 100 100 100 100 98 99
72 68 76 84 85 87 99 100 95 92 94 96 100 100 100 100 100 100 100 100 100 100 100 100 99 100 100
84 85 93 90 88 97 100 94 88 93 98 99 98 96 96 100 100 100 100 100 100 100 100 100 100 100 100

GFSFLT2_500_rhum_120.txt.gz
RH
35 32 28 24 25 26 26 24 18 18 22 24 25 23 21 21 17 15 13 12 15 22 24 25 25 30 64
45 30 26 23 24 29 29 23 20 21 25 26 23 24 25 23 20 17 14 13 14 22 27 26 30 31 43
33 28 27 26 31 28 25 24 23 25 31 33 27 27 28 26 22 18 16 16 17 24 35 27 32 37 50
36 32 27 27 31 29 25 24 24 28 32 35 30 32 31 31 24 21 20 19 19 34 44 35 35 42 59
41 38 39 36 32 30 27 27 28 31 30 35 37 40 36 28 26 24 24 24 28 42 50 49 43 50 75
44 43 38 34 34 31 29 28 31 32 34 42 43 39 35 33 33 33 32 38 41 51 68 65 62 72 83
47 44 39 37 36 30 28 27 23 27 41 46 43 43 43 41 39 41 41 47 72 64 71 77 77 83 94
44 42 40 37 33 29 27 27 35 40 47 49 48 47 46 47 49 47 47 65 78 84 92 94 81 88 90
43 42 40 37 31 25 29 34 36 43 54 44 32 50 57 55 50 48 52 68 89 85 96 100 100 100 99
44 40 34 25 26 28 33 42 54 57 44 43 56 64 61 53 46 46 53 76 99 95 95 100 96 99 97
30 28 28 34 43 48 57 62 60 50 50 63 58 62 54 50 50 56 71 93 100 100 99 97 97 84 96
46 54 54 54 66 67 65 63 63 63 58 69 69 68 61 58 67 68 88 100 100 100 98 95 100 95 95
74 67 71 78 85 79 72 71 58 72 71 78 77 71 72 74 79 83 95 100 100 100 100 99 95 97 100
86 81 86 87 81 68 62 61 66 77 87 84 82 79 84 88 86 91 100 100 100 100 100 100 100 100 100
100 92 80 78 68 58 57 61 69 77 96 90 84 87 88 88 89 94 100 100 100 100 97 99 100 100 100
91 95 88 74 70 63 71 78 77 82 95 91 88 94 95 94 98 99 99 98 100 100 95 94 95 100 100
95 89 83 80 77 78 84 87 82 85 97 96 86 91 93 97 100 97 91 93 94 98 98 100 98 100 100